Regional Weather Roundup
Issued by NWS Portland, ME

Home | Current Version | Previous Version | Text Only | Print | Product List | Glossary On
Versions: 1 2 3 4 5 6 7 8 9 10 11 12 13 14 15 16 17 18 19 20 21 22 23 24 25 26 27 28 29 30 31 32 33 34 35 36 37 38 39 40 41 42 43 44 45 46 47 48 49 50
000
ASUS41 KGYX 272010
RWRGYX
WEATHER ROUNDUP FOR MAINE AND NEW HAMPSHIRE
NATIONAL WEATHER SERVICE GRAY ME
400 PM EDT THU AUG 27 2015

MEZ002-005-006-010-012-015-018-020-021-024-026-027-029-272100-
MAINE

CITY           SKY/WX    TMP DP  RH WIND       PRES   REMARKS
PORTLAND       CLOUDY    77  57  50 W9        29.93F
SANFORD        PTSUNNY   75  54  46 W10G20    29.96S
BAR HARBOR     PTSUNNY   75  57  53 W7        29.89S
WISCASSET      CLOUDY    73  62  68 SW5       29.95R
ROCKLAND       SUNNY     75  57  53 SW12      29.90S
FRYEBURG       CLOUDY    75  58  55 NW12      29.97S
LEWISTONAUBURN CLOUDY    73 N/A N/A NW7       29.95S
AUGUSTA        MOSUNNY   76  56  49 VRB7      29.93S
WATERVILLE     MOSUNNY   75  55  50 W9        29.89F
BANGOR         PTSUNNY   73  58  59 SW8       29.90F
GREENVILLE       N/A     64  54  69 NW8       29.93R
MILLINOCKET    CLOUDY    70  58  65 W6        29.90R
HOULTON        PTSUNNY   74  55  51 W9        29.85R
PRESQUE ISLE   PTSUNNY   66  57  72 NW10      29.87R
FRENCHVILLE    LGT RAIN  63  59  87 NW7       29.87F
CARIBOU        LGT RAIN  63  58  83 NW6       29.86R
$$

NHZ002-005-008-009-011-012-014-272100-
NEW HAMPSHIRE

CITY           SKY/WX    TMP DP  RH WIND       PRES   REMARKS
PORTSMOUTH     PTSUNNY   79  56  45 W9        29.95S
ROCHESTER      CLOUDY    74  56  53 NW14      29.96S
NASHUA         PTSUNNY   78  56  46 NW13      29.97
MANCHESTER     MOSUNNY   78  51  38 W8G20     29.96S
CONCORD        MOSUNNY   76  52  43 W15G23    29.97F
LACONIA        CLOUDY    72  55  56 W8        29.97F
PLYMOUTH       CLOUDY    72  57  58 W9        29.99S
BERLIN         CLOUDY    69  53  56 VRB6      29.99S
WHITEFIELD     MOSUNNY   70  55  59 W9        30.00F
JAFFREY        MOSUNNY   73  51  46 NW6       30.02S
KEENE          PTSUNNY   73  52  46 NW3       30.01S
LEBANON        CLOUDY    73  56  54 N7        30.00S
MT WASHINGTON  FOG       45  45 100 W36G47      N/A  VSB 0
$$

VTZ005-007-008-272100-
VERMONT

CITY           SKY/WX    TMP DP  RH WIND       PRES   REMARKS
ST JOHNSBURY     N/A     71  51  49 MISG      29.99S
MONTPELIER     CLOUDY    65  53  65 NW6       30.07F
BURLINGTON     PTSUNNY   72  51  47 W6        30.02F
$$

MAZ007-012-024-CTZ003-RIZ002-NYZ038-NYZ072-272100-
SOUTHERN NEW ENGLAND AND NY

CITY           SKY/WX    TMP DP  RH WIND       PRES   REMARKS
WORCESTER      MOSUNNY   71  53  52 W13       30.02F
NANTUCKET      MOSUNNY   76  60  57 SW15      29.99F
PROVIDENCE     PTSUNNY   80  54  40 W15G22    29.99S
HARTFORD       MOSUNNY   77  55  46 W12       30.01F
ALBANY         PTSUNNY   73  57  57 NW14      30.04F
NEW YORK CITY  PTSUNNY   79  51  37 W8G20     30.02F
$$

ANZ081-ANZ082-ANZ150-NHZ014-MEZ023>029-272100-
COASTAL MARINE OBSERVATIONS

STATION/POSITION TIME  TEMP    WIND        PRES    WAVE
                       AIR SEA DIR/SP/G            HT/PER
                 (UTC) (F)     (DEG/KT/KT) (MB)    (FT/S)
MOUNT DESERT ROC 2000   61     230/ 15/ 16 1013.2F
MATINICUS ROCK   2000   63     240/ 14/ 15 1013.2S
ISLE OF SHOALS   2000   74     300/ 10/ 12 1013.8F
JEFFREYS LEDGE   1903      70                N/A     3/ 9
CASHES LEDGE BUO 1950   70                 1013.9F   3/10
GEORGES BANK BUO 1950   70 71  290/ 14/ 17 1014.1R   7/10
$$

.............KEY..............
   WCI - WIND CHILL
   TC  - TEMPERATURE IN CELSIUS
   VSB - VISIBILITY IN MILES
   HX  - HEAT INDEX
   FAIR- INDICATES FEW OR NO CLOUDS BELOW 12,000 FT, WITH NO
         SIGNIFICANT WEATHER AND/OR OBSTRUCTIONS TO VISIBILITY.





USA.gov is the U.S. government's official web portal to all federal, state and local government web resources and services.